Location: Casteau
(50.5142°N, 4.0161°E)
Time: 08:27:48
(UTC+00:00)

NOSS 2-2 (C) - Pass Details

Date: 18 September 2020
Orbit: 468 x 1740 km, 63.3° (Epoch: 19 October)

Event Time Altitude Azimuth Distance (km) Brightness Sun altitude
Rises 20:05:04 0° 234° (SW) 2,500 7.0 -21.2°
Reaches altitude 10° 20:07:06 10° 239° (WSW) 1,644 6.1 -21.5°
Maximum altitude 20:10:35 57° 319° (NW) 612 3.8 -21.9°
Drops below altitude 10° 20:14:41 10° 39° (NE) 1,928 6.0 -22.5°
Enters shadow 20:15:46 - 41° (NE) 2,377 6.5 -22.6°
